Zurück zum Katalog

STARLINK-35732

AktivKommunikationVLEO
NORAD 67037·PAYLOAD·🇺🇸 United States

Gestartet Dec 11, 2025 von Cape Canaveral Space Force Station

Loading…

Nächste Überflüge (nächste 24 Stunden)

TLE

AktuellSource: CelesTrak SupGP

Epoche: Sep 14, 2026, 21:32 UTC

1 67037C 25294H   26257.89770833  .00045841  00000+0  16604-2 0  2579
2 67037  43.0021  49.7707 0002010 275.7175  72.0630 15.27553015    19

Verfolge STARLINK-35732 in Echtzeit mit AllMySat

Download on the App Store